Погода Саран-Пауль

Погода Саран-Пауль : погода сейчас, прогноз погоды и архив. Всё, что Вы хотите узнать о погоде Саран-Пауль!

Хотите узнать прогноз погоды Саран-Пауль? Тогда Вам сюда: Погода Саран-Пауль

Поиск расширенной информации на нашем сайте:

Другие новости

Новости СМИ2

Главная страница сайта

Новости сайта

03.07.2017

Напоминаем, что на нашем специализированном сайте Метеоцентр.Азия вы можете получить высокодетализированные автоматические прогнозы погоды по пунктам России, СНГ и мира в авиационном формате (включающие направление и скорость ветра, видимость, явления погоды, количество и форму облачности, нижнюю и верхнюю границу облачности).


Погода Саран-Пауль - сегодня

Время (UTC), дата Ветер
(°,м/с) 
Видим.   Явления Облачность Т
(°С)
Тd
(°С)
f(%) Тe
(°С)
Pmin
(гПа)
dP
(гПа)
Po
(мм)
O2
(г/м3)
Тmin Tmax R s Состояние
почвы
03 18.05.18 330 (СЗ) 20000 м    3/3 600 м 
[Cu hum]
-0.8 -7 63 1022.9  0.7  764  310  -3.3        мокрая 
06 18.05.18 160 (Ю) 20000 м    ясно 
+3.2 -8.1 43 +4  1023  0.1  764  305           
09 18.05.18 060 (СВ) 20000 м    1/0 верхняя 
[Ci sp]
+5.8 -9.1 33 +6  1023.2  0.3  765  303           
12 18.05.18 100 (В) 20000 м    ясно 
+6.9 -7 36 +7  1022.9  -0.3  764  301           
15 18.05.18 130 (ЮВ) 20000 м    ясно 
+6.4 -5.2 43 +6  1022.3  -0.6  764  301    +7.1       
18 18.05.18 тихо ()   20000 м    ясно 
-1.1 -3.1 86 -1  1021.8  -0.6  764  309           
21 18.05.18 тихо ()   50000 м    ясно 
-3.9 -3.9 100 -4  1021.5  -0.3  763  313           
00 19.05.18 тихо ()   20000 м    6/0 верхняя 
[Ci sp]
-2.9 -3.3 97 -3  1020.4  -1.1  763  311           
03 19.05.18 070 (В) 20000 м    10/0 верхняя 
[Ci]
+2.7 -5 57 +2  1017.8  -2.4  761  304  -4.8         
06 19.05.18 090 (В) 20000 м    9/4 600 м кучево-дожд., средняя, верхняя 
[Cb cap|Ac lent|Ci sp]
+7 -4.6 43 +7  1015.3  -2.5  759  299           
09 19.05.18 320 (СЗ) 20000 м    10/8 600 м кучево-дожд., средняя 
[Cb cap|Ac As]
+5.3 -0.9 64 +6  1013.7  -1.6  758  300           
12 19.05.18 330 (СЗ) 20000 м    10/6 600 м кучево-дожд., средняя 
[Cb cap|Ac As]
+5.1 +0.8 74 +6  1011.8  -1.9  756  299           
18 19.05.18 280 (З) 10 км  слаб. ливневой дождь  10/10 600 м кучево-дожд. 
[Cb cap]
+3.3 +1.9 91 +4  1006.4  -2.3  752  299           
21 19.05.18 тихо ()   9000 м  слаб. ливневой дождь  10/10 600 м кучево-дожд. 
[Cb cap]
+2.5 +2.4 99 +3  1003.9  -2.6  750  299           
00 20.05.18 280 (З) 20000 м  {ливн. осадки}  10/6 600 м кучево-дожд., средняя 
[Cb cap|Ac trans]
+2.7 +2.7 100 +3  1001.8  -2  749  298           
03 20.05.18 310 (СЗ) 10 км  слаб. ливневой дождь  10/10 600 м кучево-дожд. 
[Cb cap]
+3.2 +2.7 97 +4  1000.8  -1.1  748  297  +2.3       
06 20.05.18 320 (СЗ) 10 км  {ливн. осадки}  10/10 300 м кучево-дожд. 
[Cb cap]
+4.3 +4.1 99 +4  1000.8  748  296           
09 20.05.18 320 (СЗ) 10 км  слаб. ливневой дождь  10/10 300 м кучево-дожд. 
[Cb cap]
+4.9 +4.9 100 +4  1002.4  1.7  749  296           
12 20.05.18 350 (С) 10 км  слаб. ливневой дождь  10/10 600 м кучево-дожд. 
[Cb cap]
+4 +2.9 93 +3  1005.4  751  298           
15 20.05.18 030 (СВ) 20000 м  {ливн. осадки}  9/9 600 м кучево-дожд. 
[Cb cap]
+2.3 +1.4 94 +3  1008.6  3.1  754  301    +5.7     
18 20.05.18 330 (СЗ) 20000 м  {ливн. осадки}  3/0 средняя 
[Ac lent]
+1.6 -0.2 88 +1  1012  3.4  756  303           
21 20.05.18 280 (З) 50000 м    ясно 
-1.4 -1.9 96 -1  1014.1  758  307           
00 21.05.18 240 (ЮЗ) 20000 м    4/0 средняя, верхняя 
[Ac trans|Ci sp]
-1.1 -1.5 97 -1  1016  1.9  759  307           
03 21.05.18 260 (З) 20000 м    4/0 средняя, верхняя 
[Ac trans|Ci fib]
+4.2 -0.2 73 +5  1017.6  1.6  761  302  -2.1         
06 21.05.18 170 (Ю) 20000 м    4/0 средняя, верхняя 
[Ac lent|Ci fib]
+9.4 -0.1 51 +10  1018  0.5  761  296           
Время (UTC), дата Ветер
(°,м/с) 
Видим.   Явления Облачность Т
(°С)
Тd
(°С)
f(%) Тe
(°С)
Pmin
(гПа)
dP
(гПа)
Po
(мм)
O2
(г/м3)
Тmin Tmax R s Состояние
почвы

Для получения пояснительной информации подведите курсор к названию столбца.

ПОГОДА Саран-Пауль - архив

Всё, что Вы хотите узнать о погоде Саран-Пауль - удобно и подробно!

Выберите нужную дату (начиная с 1 января 2015* года) и нажмите кнопку "Найти".
Будут отображены архивные сводки погоды по пункту Саран-Пауль, начиная с указанной даты.


Отображать данные в формате CSV (для использования в таблицах Excel)


Внимание! Наш архив погоды предназначен исключительно для личного некоммерческого использования в познавательных целях. Если Вам необходимы официальные справки о состоянии погоды (для производственных, юридических, коммерческих и т.п. целей), обращайтесь в органы Росгидромета.

*Примечание: данная дата относится к архиву по метеостанциям СССР (Россия, СНГ, Балтия).
Архив по метеостанциям Зарубежной Европы и Азии (кроме Китая) хранится 10 дней, по другим регионам земного шара (Китай, Африка, Америка, Австралия, Океания) - 1 день.

Саран-Пауль - район местоположения метеостанции


Название, широта, долгота, высота метеостанции:
Саран-Пауль 64.3°ш. 60.9°д. 29 м над ур. моря [Российская Федерация]

Дополнительная информация

В oтличие oт бoльшинства пoгoдных сайтoв мы публикуем пoдрoбную метеoинфoрмацию в детальнoм прoфессиoнальнoм фoрмате.

Характеристики температуры и влажнoсти вoздуха измеряются на высoте 2 м в тени вдали oт зданий и деревьев.
Скoрoсть ветра измеряется на высoте 10 м (на урoвне рoста челoвека скoрoсть ветра ниже в 1.5-2 раза). Если метеoстанция нахoдится в гoрoде или в лесу, тo скoрoсть ветра занижена на 2-4 м/с пo сравнению с oткрытым местoм. Скoрoсть ветра над акватoриями крупных рек и oзёр, а также на вершинах хoлмoв на 2-5 м/с выше, чем в oбычных услoвиях.
Атмoсфернoе давление в разных тoчках местнoсти мoжет значительнo oтличаться oт давления на метеoстанции, в зависимoсти oт услoвий рельефа (при пoдъёме на 10 м давление пoнижается примернo на 1 мм рт.ст.).